{"data":{"norad_id":81478,"intl_designator":"","name":"UNKNOWN","alt_names":[],"object_type":"UNKNOWN","status":"UNKNOWN","operator":null,"country":null,"launch_date":null,"launch_site_code":null,"launch_vehicle":null,"mission":null,"orbit_class":"UNKNOWN","rcs_meters":null,"size_class":null,"mass_kg":null,"dimensions":null,"purposes":[],"wikipedia_slug":null,"has_3d_model":false,"image_url":null,"decayed_at":null,"tle_current":{"epoch":"2026-09-18T06:48:19.088064Z","epoch_age_seconds":206044,"freshness":"STALE","line1":"1 81478U          26261.28355426  .00002240  00000+0  79193-3 0  9999","line2":"2 81478  98.9471 185.8258 0141400 266.5955 248.2625 14.30268167662879","mean_motion":14.30268167,"eccentricity":0.01414,"inclination_deg":98.9471,"raan_deg":185.8258,"arg_perigee_deg":266.5955,"mean_anomaly_deg":248.2625,"bstar":0.00079193,"rev_number":66287,"period_min":100.68042016347,"perigee_km":689.4653339493,"apogee_km":892.20385057852,"semimajor_km":7168.9715922639,"source":"CELESTRAK","updated_at":"2026-09-20T09:00:32.389192Z"}}}